SCP
0 0 0 0 0 0 0 0 0 0 0 0 0 0 0 0 0 0 0 0 0 0 0 0 0 0 0 0 0 0 0 0 0 0 0 0 0 0 0 0 0 0 0 0
0 0 0 0 0 0 0 0 0 0 0 0 0 -0 -0 -0 0 0 0 0 0 0 0 0 0 0 0 0 0 0 0 0 0 0 0 0 0 0 0 0 0 0 0 0
0 0 0 0 0 0 0 0 0 0 0 0 0 0 0 -0 0 0 0 0 0 0 0 0 0 0 0 0 0 0 0 0 0 0 0 0 0 0 0 0 0 0 0 0
0 0 0 0 0 0 0 0 0 0 0 0 0 0 0 0 0 0 0 0 0 0 0 0 0 0 0 0 0 0 0 0 0 0 0 0 0 0 0 0 0 0 0 0
0 0 0 0 0 0 0 0 0 0 0 0 0 0 0 0 0 0 0 0 0 0 0 0 0 0 0 0 0 0 0 0 0 0 0 0 0 0 0 0 0 0 0 0
0 0 0 0 0 0 0 0 0 0 0 0 0 0 0 0 0 0 0 0 0 0 0 0 0 0 0 0 0 0 0 0 0 0 0 0 0 0 0 0 0 0 0 0
0 0 0 0 0 0 0 0 0 0 0 0 0 0 0 0 0 0 0 0 0 0 0 0 0 0 0 0 0 0 0 0 0 0 0 0 0 0 0 0 0 0 0 0
0 0 0 0 0 0 0 0 0 0 0 0 0 0 0 0 0 0 0 0 0 0 0 0 0 0 0 0 0 0 0 0 0 0 0 0 0 0 0 0 0 0 0 0
0 0 0 0 0 0 0 0 0 0 0 0 0 0 0 0 0 0 -0 0 0 0 0 0 0 0 0 0 0 0 0 0 0 0 0 0 0 0 0 0 0 0 0 0
0 0 0 0 0 0 0 0 0 0 0 0 0 0 0 0 0 -0 -0 0 0 0 0 0 0 -0 0 0 0 0 0 0 0 0 0 0 0 0 0 0 0 0 0 0
0 0 0 0 0 0 0 0 0 0 0 0 0 0 0 0 -0 -0 -0 -0 -0 -0 -0 -0 0 0 0 0 0 0 0 0 0 0 0 0 0 0 0 0 0 0 0 0
0 0 0 0 0 0 0 0 0 0 0 0 0 0 0 0 0 0 0 0 0 -0 -0 -0 0 0 0 0 0 0 0 0 0 0 0 0 0 0 0 0 0 0 0 0
0 0 0 0 0 0 0 0 0 0 0 0 0 0 0 0 0 0 0 0 0 0 0 0 0 0 0 0 0 0 0 0 0 0 0 0 0 0 0 0 0 0 0 0
0 0 0 0 0 0 0 0 0 0 0 0 0 0 0 0 0 0 0 0 0 0 0 0 0 0 0 0 0 0 0 0 0 0 0 0 0 0 0 0 0 0 0 0
0 0 0 0 0 0 0 0 0 0 0 0 0 0 0 0 0 0 0 0 0 0 0 0 0 0 0 0 0 0 0 0 0 0 0 0 0 0 0 0 0 0 0 0
0 0 0 0 0 0 0 0 0 0 0 0 0 0 0 0 0 0 0 0 0 0 0 0 0 0 0 0 0 0 0 0 0 0 0 0 0 0 0 0 0 0 0 0
0 0 0 0 0 0 0 0 0 0 0 0 0 0 0 0 0 0 0 0 0 0 0 0 0 0 0 0 0 0 0 0 0 0 0 0 0 0 0 0 0 0 0 0
0 0 0 0 0 0 0 0 0 0 0 0 0 0 0 0 0 0 0 0 0 0 0 0 0 0 0 0 0 0 0 0 0 0 0 0 0 0 0 0 0 0 0 0
0 0 0 0 0 0 0 0 0 0 0 0 0 0 0 0 0 0 0 0 0 0 0 0 0 0 0 0 0 0 0 0 0 0 0 0 0 0 0 0 0 0 0 0
0 0 0 0 0 0 0 0 0 0 0 0 0 0 0 0 0 0 0 0 0 0 0 0 0 0 0 0 0 0 0 0 0 0 0 0 0 0 0 0 0 0 0 0
0 0 0 0 0 0 0 0 0 0 0 0 0 0 0 0 0 0 0 0 0 0 0 0 0 0 0 0 0 0 0 0 0 0 0 0 0 0 0 0 0 0 0 0
0 0 0 0 0 0 0 0 0 0 0 0 0 0 0 0 0 0 0 0 0 0 0 0 0 0 -0 0 0 0 0 0 0 0 0 0 0 0 0 0 0 0 0 0
0 0 0 0 0 0 0 0 0 0 0 0 0 0 0 0 0 0 0 0 0 0 0 0 0 -0 -0 0 0 0 0 0 0 0 0 0 0 0 0 0 0 0 0 0
0 0 0 0 0 0 0 0 0 0 0 0 0 0 0 0 0 0 0 0 0 0 0 0 0 0 0 0 0 0 0 0 0 0 0 0 0 0 0 0 0 0 0 0
0 0 0 0 0 0 0 0 0 0 0 0 0 0 0 0 0 0 0 0 0 0 0 0 0 0 0 0 0 0 0 0 0 0 0 0 0 0 0 0 0 0 0 0
0 0 0 0 0 0 0 0 0 0 0 0 0 0 0 0 0 0 0 0 0 0 0 0 0 0 0 0 0 0 0 0 0 0 0 0 0 0 0 0 0 0 0 0
Wind_Speed
8 9 12 14 14 5 5 7 7 3 2 6 11 14 13 10 11 12 12 13 13 13 11 10 10 9 8 7 7 7 6 5 4 3 2 2 2 2 2 2 3 3 4 4
8 13 11 7 9 8 7 8 7 3 2 5 8 14 14 12 14 13 14 14 14 13 12 11 10 9 9 8 8 7 6 6 5 3 2 2 2 2 2 3 3 4 4 4
13 4 8 10 10 11 11 11 8 5 2 4 7 11 10 7 9 10 12 12 13 13 13 11 11 10 10 9 8 7 7 6 5 4 3 2 1 2 2 3 3 4 4 5
11 6 7 11 12 12 10 8 7 6 6 4 4 7 5 5 6 9 10 11 12 12 12 11 11 10 9 9 7 7 7 6 5 5 4 4 3 3 4 3 3 4 5 5
8 8 10 11 9 11 4 4 5 6 6 5 6 7 7 4 7 8 9 10 10 10 11 11 10 9 8 8 7 7 7 6 6 5 5 5 4 3 3 3 4 4 4 5
4 4 6 6 4 8 9 7 4 3 4 7 8 9 8 5 6 5 6 6 8 8 9 9 8 8 7 7 6 6 6 6 6 6 5 5 5 4 4 4 4 4 4 4
8 6 4 4 8 9 9 7 4 5 6 8 4 8 9 2 2 3 3 4 5 6 7 8 8 8 7 7 7 6 7 6 6 6 5 5 5 5 5 5 5 5 4 4
11 9 11 8 8 10 13 9 7 7 7 4 5 10 5 1 1 3 3 3 4 5 6 6 7 7 6 7 7 7 7 6 6 5 5 5 5 4 4 5 5 5 5 5
10 7 5 5 3 8 10 9 3 1 1 4 6 6 6 4 3 3 3 4 5 5 5 5 5 5 6 6 6 6 6 6 6 5 5 5 5 5 5 5 5 5 5 6
4 5 5 5 4 1 3 6 6 6 6 8 6 7 5 5 4 4 4 5 5 4 4 4 4 4 5 5 5 5 6 6 5 5 4 4 4 4 5 5 6 6 7 7
4 5 5 6 9 10 8 7 6 5 4 6 6 3 1 2 2 3 3 4 4 4 4 4 3 4 4 4 4 4 5 5 4 4 4 4 4 4 5 5 6 6 7 7
5 4 4 5 1 3 6 7 8 7 6 5 5 1 3 0 0 2 3 3 3 3 3 3 3 3 3 3 4 4 4 4 4 3 4 4 4 4 5 5 6 6 7 8
6 5 5 5 5 4 5 6 6 2 3 5 7 3 3 1 1 2 2 3 3 3 3 2 3 3 3 3 3 3 3 3 3 3 3 4 4 5 5 6 6 7 8 8
3 4 6 7 3 8 8 9 9 8 6 7 9 5 3 2 2 2 2 2 2 2 2 2 2 2 2 2 3 3 3 2 2 3 3 4 4 5 6 6 7 7 8 8
3 4 4 3 1 5 6 11 14 13 11 10 9 9 7 5 2 2 2 2 2 2 2 2 2 2 2 2 2 2 2 2 2 2 3 4 4 5 5 6 7 8 8 9
2 3 4 3 3 3 5 9 13 14 13 12 9 10 6 4 3 3 3 3 3 3 2 2 2 3 3 3 2 2 2 2 2 2 3 3 4 5 6 7 7 8 9 9
3 4 4 4 3 2 8 10 12 10 11 11 14 11 4 5 5 5 4 4 4 3 3 3 3 3 3 3 2 3 2 2 2 3 3 4 4 5 6 7 8 8 9 9
5 4 2 3 4 9 4 2 9 10 9 10 8 5 5 5 3 3 3 4 4 3 3 3 3 3 2 2 2 2 2 2 2 3 3 4 5 6 7 7 8 9 8 8
7 5 3 4 6 7 4 3 5 8 6 7 9 7 5 2 2 3 2 3 3 3 3 2 2 2 1 1 1 1 1 2 2 3 4 4 5 6 7 8 9 8 8 8
5 4 4 4 6 7 2 1 3 5 4 3 6 6 3 4 4 2 1 1 2 1 1 1 0 1 1 1 1 2 2 2 3 4 4 5 5 6 7 8 8 8 8 8
5 5 6 6 6 4 2 1 5 6 1 1 3 3 3 4 2 1 1 1 1 1 1 0 0 0 1 1 1 2 2 3 3 4 4 5 5 6 6 7 7 7 7 8
6 6 6 5 6 5 2 5 5 0 2 1 1 2 2 2 1 1 1 1 1 1 1 1 1 1 1 1 1 2 3 3 3 4 4 5 6 5 5 6 7 7 7 7
5 4 3 5 3 1 3 2 0 1 1 1 0 0 1 2 1 0 0 1 1 1 1 1 1 1 2 1 1 2 3 3 3 4 5 5 6 5 5 5 6 6 6 5
3 1 3 3 3 2 1 1 1 1 2 2 1 0 1 1 1 1 0 0 1 1 1 1 1 1 2 2 2 2 3 3 3 4 5 5 5 6 5 4 4 5 5 5
2 3 3 4 3 2 2 2 2 1 1 1 2 1 0 1 1 1 1 0 0 1 1 1 1 2 3 3 3 3 3 3 4 4 5 5 5 5 5 5 4 5 5 6
2 3 4 4 2 2 2 2 2 1 2 2 1 1 0 1 1 1 1 0 0 1 1 1 2 2 3 3 3 4 3 3 3 4 4 4 4 4 4 5 5 5 6 9
Wind_Direction
180 200 208 205 210 239 215 213 223 208 164 229 241 255 257 241 233 231 221 213 211 212 205 195 194 193 192 189 190 188 190 190 190 193 205 219 237 253 260 271 277 283 292 297
181 221 220 205 203 210 211 218 226 213 192 249 266 267 263 246 233 229 224 216 212 209 201 194 195 195 196 193 193 193 194 194 197 204 214 228 241 255 263 265 269 277 285 289
204 193 190 189 191 205 220 230 232 229 215 232 278 267 237 223 223 226 226 223 216 210 204 194 194 198 198 197 196 199 198 198 201 201 200 201 222 244 250 262 272 275 282 284
220 198 179 191 202 204 223 224 224 221 232 235 252 275 240 208 215 218 216 214 213 207 204 196 194 195 197 199 198 202 200 200 199 198 206 213 230 247 260 270 272 280 281 285
201 190 189 201 206 201 194 161 196 219 231 257 221 248 257 204 229 216 208 208 206 202 200 196 195 196 197 195 195 200 200 203 202 207 215 226 238 254 265 271 271 281 282 283
197 186 210 204 183 179 140 129 125 182 221 244 220 224 253 207 214 196 190 195 197 196 197 196 192 193 193 190 192 197 199 204 205 212 220 230 243 255 263 270 276 281 283 282
198 195 186 170 150 162 181 167 170 191 211 232 168 225 247 213 210 216 197 189 184 185 189 190 188 191 191 191 194 198 201 206 209 216 224 234 243 251 256 267 274 282 283 285
195 198 187 188 190 179 193 199 202 210 218 197 187 232 236 130 276 256 236 208 184 179 182 188 191 193 194 195 197 200 205 211 213 220 229 236 243 250 257 265 274 278 282 287
200 193 154 181 192 180 177 209 234 193 337 244 216 241 266 220 232 210 192 181 180 179 182 186 189 192 197 197 201 202 207 214 219 225 233 238 242 252 263 271 274 278 282 286
198 178 159 158 155 168 220 168 170 198 209 231 230 233 218 185 183 169 172 175 171 174 179 183 186 192 200 200 200 202 211 218 223 228 234 243 249 258 267 272 278 282 284 284
192 164 151 174 199 185 167 181 199 196 240 236 231 212 78 205 180 175 171 168 168 169 174 181 185 193 197 197 197 204 213 219 224 230 240 249 257 266 272 276 282 286 286 285
181 175 177 188 143 279 213 199 189 199 206 232 250 195 74 118 149 163 146 144 146 157 169 178 181 185 189 194 202 210 215 220 227 235 248 257 265 271 276 283 288 289 289 287
160 170 166 172 185 192 212 207 209 211 180 203 223 195 102 80 127 143 145 140 141 157 166 171 177 188 192 198 208 216 220 227 234 240 250 262 272 278 283 288 291 291 290 289
163 187 219 219 192 170 191 199 199 198 212 218 234 234 218 220 186 166 160 159 152 160 173 182 194 199 201 210 214 222 236 236 244 249 257 268 277 283 288 291 292 292 291 290
196 208 211 247 199 171 197 199 197 208 221 230 235 233 233 236 232 208 186 174 184 192 203 216 223 221 219 219 223 232 243 245 246 254 266 277 287 292 293 294 295 296 294 293
191 203 187 219 208 210 226 216 207 218 227 237 251 254 251 247 249 247 227 209 222 221 229 245 252 250 244 233 231 234 243 254 255 262 277 291 297 299 299 299 300 300 299 298
181 181 192 214 201 230 244 221 206 210 216 218 233 243 221 226 238 243 235 223 228 239 249 253 260 263 261 250 237 235 243 253 261 275 289 298 301 301 302 304 304 303 301 300
190 195 202 176 176 229 243 204 203 211 227 225 238 249 233 239 245 262 249 238 239 247 254 261 271 275 272 258 250 252 247 251 269 284 294 303 305 303 305 304 304 305 303 300
202 189 188 192 218 252 257 198 191 201 236 231 231 244 243 212 240 242 229 243 252 255 257 260 267 267 262 250 243 241 254 269 279 290 300 305 304 302 303 304 307 309 306 303
190 194 196 202 216 230 252 146 192 179 232 226 214 224 219 176 218 213 48 277 268 275 243 246 263 251 254 259 227 230 255 273 286 296 300 303 301 298 298 303 306 306 303 300
174 187 205 215 229 251 334 147 167 194 212 38 199 202 185 197 243 43 13 350 343 21 37 87 162 231 314 295 244 252 272 285 301 306 303 303 302 301 303 305 306 306 304 301
183 179 189 200 216 226 104 147 181 25 33 42 108 162 182 192 149 60 18 25 44 52 44 37 41 7 355 331 273 275 290 308 313 308 303 304 307 309 306 308 308 306 304 303
212 209 194 203 218 18 151 167 136 27 10 5 4 342 174 177 192 178 17 38 47 51 43 24 24 3 349 331 301 291 310 316 310 306 306 309 310 309 306 305 307 307 306 305
217 242 210 215 237 254 215 266 315 337 349 355 8 38 176 200 199 173 125 84 72 45 33 27 15 350 345 346 330 312 313 311 304 305 307 309 310 310 312 308 305 305 306 305
213 190 207 234 269 286 264 280 296 321 349 2 4 11 197 180 187 173 158 147 70 20 8 358 338 325 328 335 334 330 320 311 307 306 305 307 308 308 309 308 305 302 300 305
217 219 225 244 237 242 263 292 314 317 313 317 335 353 15 187 182 169 164 115 6 354 342 326 316 310 315 323 327 330 323 311 305 302 304 305 308 312 311 311 309 299 297 310